Regional Weather Roundup
Issued by NWS

Home | Current Version | Previous Version | Graphics & Text | Print | Product List | Glossary On
Versions: 1 2 3 4 5 6 7 8 9 10 11 12 13 14 15 16 17 18 19 20 21 22 23 24 25 26 27 28 29 30 31 32 33 34 35 36 37 38 39 40 41 42 43 44 45 46 47 48 49
000
ASUS45 KBOU 302007
RWRCO

WEATHER ROUNDUP FOR COLORADO
NATIONAL WEATHER SERVICE DENVER/BOULDER CO
200 PM MDT TUE SEP 30 2014

NOTE: "FAIR" INDICATES FEW OR NO CLOUDS BELOW 12000 FEET WITH NO
SIGNIFICANT WEATHER AND/OR OBSTRUCTIONS TO VISIBILITY.

COZ001>005-013-030-031-302100-
...NORTHWEST COLORADO...

CITY           SKY/WX    TMP DP  RH WIND       PRES   REMARKS
CRAIG          CLOUDY    57  38  48 W17G26    29.96F
HAYDEN         CLOUDY    52  36  54 W18       29.96F
MEEKER         LGT RAIN  49  41  74 W15       29.99R
MOUNT WERNER   NOT AVBL
STEAMBOAT SPGS CLOUDY    48  37  65 W16G22    29.97F
WALDEN         CLOUDY    43  32  65 S16G22    29.96F
$$

COZ006>008-011-302100-
...WEST CENTRAL VALLEYS...

CITY           SKY/WX    TMP DP  RH WIND       PRES   REMARKS
GRAND JUNCTION CLOUDY    60  41  49 CALM      29.96F
MONTROSE       CLOUDY    60  41  49 CALM      30.00F
EAGLE          PTSUNNY   50  43  76 CALM      30.02F
RIFLE          CLOUDY    57  43  59 N5        29.97F
DELTA          CLOUDY    63  41  44 NE3       29.97F
NUCLA          PTSUNNY   61  37  41 SW8       30.03F
$$

COZ017>023-064>068-302100-
...SOUTHWEST COLORADO...

CITY           SKY/WX    TMP DP  RH WIND       PRES   REMARKS
DURANGO        MOSUNNY   57  40  52 SW12      30.04F
CORTEZ         MOSUNNY   62  37  39 NW10      30.02F
PAGOSA SPRINGS PTSUNNY   54  36  50 S8        30.08F
TELLURIDE      CLOUDY   N/A N/A N/A W10       30.12F
WOLF CREEK PAS FOG       32  32 100 SW9       30.22S VSB<1/4 WCI  24
$$

COZ009-010-012-014-032>034-037-058>063-302100-
...CENTRAL COLORADO...

CITY           SKY/WX    TMP DP  RH WIND       PRES   REMARKS
ASPEN          CLOUDY    47  37  68 N3        30.04F
BUENA VISTA    PTSUNNY   54  26  33 W15G25    30.02S
COPPER MTN     CLOUDY    34  28  80 W13G22    30.15F WCI  25
BERTHOUD PASS  CLOUDY    25  23  93 NW31G41   30.11F WCI   8
COTTONWOOD PAS CLOUDY    46  27  46 NW8G23    30.08F
GUNNISON       CLOUDY    48  34  57 N5        30.08F
KREMMLING      PTSUNNY   52  36  54 W13G22    29.99F
LEADVILLE      CLOUDY    40  28  62 NW10G18   30.08F
MONARCH PASS   FOG       30  30 100 MISG      30.24R VSB<1/4
SALIDA         PTSUNNY   61  29  29 SW17G28   30.07F
SUNLIGHT       CLOUDY    36  36 100 CALM      30.14F
WILKERSON PASS NOT AVBL
$$

COZ069>075-302100-
...SAN LUIS VALLEY/SANGRE DE CRISTO MOUNTAINS...

CITY           SKY/WX    TMP DP  RH WIND       PRES   REMARKS
ALAMOSA        MOSUNNY   57  29  34 VRB6      30.01F
LA VETA PASS   SUNNY     48  30  49 SW8G22    30.09S
SAGUACHE       CLOUDY    54  32  43 NW16      30.03F
$$

COZ035-036-038>040-302100-
...NORTHERN COLORADO FRONT RANGE...

CITY           SKY/WX    TMP DP  RH WIND       PRES   REMARKS
DENVER INTL AP MOSUNNY   67  33  28 W22       29.83F
DMNS CITY PARK   N/A     65  31  27 NW7G26    29.84F
AURORA         PTSUNNY   65  33  30 NW17G28   29.86F
FRONT RANGE AP MOSUNNY   68  37  32 W17       29.85F
ERIE MUNI ARPT PTSUNNY   68  31  25 W8        29.83F
BOULDER MUN AP PTSUNNY   66  32  28 W6        29.83F
CENTENNIAL     PTSUNNY   63  32  31 NW15      29.86F
BROOMFIELD     PTSUNNY   64  32  29 W20G28    29.86F
FORT COLLINS   CLOUDY    66  37  34 SW13      29.82F
LONGMONT       CLOUDY    73  31  21 W12G18    29.83F HAZE
$$

COZ041-046-047-076>085-087-088-302100-
...PIKES PEAK/PALMER DIVIDE AND SOUTHERN FOOTHILLS...

CITY           SKY/WX    TMP DP  RH WIND       PRES   REMARKS
COLO. SPRINGS  MOSUNNY   69  28  21 VRB6      29.87F
A. F. ACADEMY  MOSUNNY   67  27  22 W9G17     29.88F
ELLICOTT       NOT AVBL
FALCON         SUNNY     65  25  22 CALM      29.91F
FORT CARSON    SUNNY     68  31  24 VRB5      29.85F
LIMON          MOSUNNY   67  36  31 NW13G22   29.84F
MONUMENT HILL  MOSUNNY   61  30  31 NW20G25   29.91F
TRINIDAD       SUNNY     70  29  21 E9        29.85F
$$

COZ042>045-048>051-090-091-302100-
...NORTHEAST COLORADO...

CITY           SKY/WX    TMP DP  RH WIND       PRES   REMARKS
GREELEY ARPT   PTSUNNY   66  36  32 W3        29.82F
AKRON          SUNNY     67  36  31 VRB6      29.81F
BURLINGTON     SUNNY     70  37  29 CALM      29.80F
WRAY           SUNNY     77  33  19 S9G17     29.76F
STERLING       SUNNY     77  41  27 W9G16     29.76F
HOLYOKE        SUNNY     77  37  24 W10       29.77F
FORT MORGAN    SUNNY     69  35  29 SW5       29.81F
$$

COZ086-089-092>099-302100-
...SOUTHEAST COLORADO...

CITY           SKY/WX    TMP DP  RH WIND       PRES   REMARKS
PUEBLO         SUNNY     75  29  18 W16G24    29.80F
LA JUNTA       SUNNY     76  31  19 MISG      29.79F
LAMAR          SUNNY     74  39  28 NW7G20    29.77F
SPRINGFIELD      N/A     74  30  19 CALM      29.81F
$$


USA.gov is the U.S. government's official web portal to all federal, state and local government web resources and services.